Regional Weather Roundup
Issued by NWS

Home | Current Version | Previous Version | Text Only | Print | Product List | Glossary Off
Versions: 1 2 3 4 5 6 7 8 9 10 11 12 13 14 15 16 17 18 19 20 21 22 23 24 25 26 27 28 29 30 31 32 33 34 35 36 37 38 39 40 41 42 43 44 45 46 47 48 49 50

276
ASUS43 KDTX 231701
RWRMI
MICHIGAN HOURLY REGIONAL WEATHER ROUNDUP
NATIONAL WEATHER SERVICE DETROIT/PONTIAC MI
100 PM EDT SAT SEP 23 2017

NOTE: "FAIR" INDICATES FEW OR NO CLOUDS BELOW 12,000 FEET WITH NO
SIGNIFICANT WEATHER AND/OR OBSTRUCTION TO VISIBILITY.

MIZ047>049-052>055-059>063-066>070-074>076-081>083-231800-
SOUTHEAST LOWER MICHIGAN

CITY           SKY/WX    TMP DP  RH WIND       PRES   REMARKS
ADRIAN         SUNNY     88  61  40 CALM      30.16S
ALMA           SUNNY     90  60  36 SW7       30.14F
ANN ARBOR      SUNNY     89  59  36 VRB3      30.15S
BAD AXE        SUNNY     87  65  47 SW3       30.16S
CARO           SUNNY     89  64  44 CALM      30.15S HX  90
DETROIT CITY   SUNNY     88  61  40 CALM      30.15S
DETROIT        MOSUNNY   88  63  43 CALM      30.16S
FLINT          SUNNY     90  64  42 W3        30.15F HX  91
GROSSE ILE     SUNNY     80  70  71 S3        30.15S
HILLSDALE      MOSUNNY   88  59  37 SW3       30.16S
HOWELL         SUNNY     89  59  36 CALM      30.16S

CITY           SKY/WX    TMP DP  RH WIND       PRES   REMARKS
JACKSON        SUNNY     90  59  35 VRB5      30.16S
LAMBERTVILLE   SUNNY     86  67  53 CALM      30.15S
LANSING        SUNNY     91  63  39 W5        30.15F HX  92
LAPEER         FAIR      87  62  43 CALM      30.17S
MASON          SUNNY     90  61  37 CALM      30.16S HX  90
MONROE         SUNNY     87  64  46 CALM      30.15R
PONTIAC        MOSUNNY   89  59  36 CALM      30.16S
PORT HOPE        N/A     82  69  64 CALM      30.13S
PORT HURON     SUNNY     90  57  33 CALM      30.16S
TRI CITIES     SUNNY     91  69  48 W5        30.14F HX  96
MIDLAND        FAIR      91  68  46 W8        30.13S HX  95
TROY           SUNNY     88  60  38 CALM      30.17S
SAGINAW HB     SUNNY     88  64  45 CALM      30.14S
$$
MIZ043>046-050>051-056>058-064>065-071>073-077>080-231800-
SOUTHWEST LOWER MICHIGAN

CITY           SKY/WX    TMP DP  RH WIND       PRES   REMARKS
BATTLE CREEK   SUNNY     90  62  39 VRB3      30.15F HX  90
BENTON HARBOR  SUNNY     90  65  43 SE5       30.12F HX  92
BIG RAPIDS     SUNNY     88  64  45 W12       30.14S
COLDWATER      SUNNY     88  58  36 NW3       30.15F
FREMONT        FAIR      90  66  45 SW9       30.13S HX  92
HOLLAND        SUNNY     91  65  41 VRB3      30.13F HX  93
GRAND RAPIDS   MOSUNNY   92  66  42 VRB5      30.13F HX  94
IONIA          FAIR      90  63  40 W3        30.13F HX  91
KALAMAZOO      SUNNY     90  55  30 VRB3      30.14F
LUDINGTON      MOSUNNY   85  66  53 SW7       30.11S
MARSHALL       SUNNY     90  55  30 CALM      30.15S
MUSKEGON       MOSUNNY   89  66  46 W8        30.13S HX  91
SOUTH HAVEN    SUNNY     90  64  42 CALM      30.12S HX  91
$$
MIZ016>042-231800-
NORTHERN LOWER MICHIGAN

CITY           SKY/WX    TMP DP  RH WIND       PRES   REMARKS
ALPENA         SUNNY     89  69  51 SW8       30.11F HX  93
BEAVER ISLAND  SUNNY     82  65  57 SW15      30.08S
BELLAIRE       SUNNY     87  65  47 SW3       30.10S
CADILLAC       SUNNY     90  64  41 SW13      30.14F HX  91
CHARLEVOIX     SUNNY     88  64  45 SW12      30.12S
FRANKFORT      MOSUNNY   84  67  54 SW9G16    30.10S
GAYLORD        SUNNY     87  63  44 W15       30.14S
GRAYLING       SUNNY     87  65  47 SW8       30.15S
HARBOR SPRINGS SUNNY     86  65  48 W5        30.09S
HOUGHTON LAKE  SUNNY     87  66  49 SW6       30.15F
MANISTEE       MOSUNNY   88  67  49 SW12      30.10S HX  91
OSCODA         SUNNY     89  67  48 W6        30.12S HX  93
PELLSTON       SUNNY     89  65  44 W9G20     30.10R HX  91
ROGERS CITY    SUNNY     88  67  49 W6        30.10S HX  91
TRAVERSE CITY  MOSUNNY   91  66  43 VRB7      30.08F HX  93
$$
MIZ007>008-015-231800-
EASTERN UPPER MICHIGAN

CITY           SKY/WX    TMP DP  RH WIND       PRES   REMARKS
KINROSS        MOSUNNY   84  69  60 SW8       30.07F
MACKINAC ISLAN MOSUNNY   79  65  62 SW9       30.09F
NEWBERRY       SUNNY     83  71  67 S14       30.04F
S. S. MARIE    MOSUNNY   84  70  62 VRB5      30.05F
MUNISING         N/A     87  71  58 SW12G21   29.99F HX  93
$$
MIZ004>006-011>014-085-231800-
CENTRAL UPPER MICHIGAN

CITY           SKY/WX    TMP DP  RH WIND       PRES   REMARKS
MANISTIQUE     SUNNY     74  68  80 S9        30.06S
ESCANABA       SUNNY     76  68  76 S10       30.04F
MENOMINEE      SUNNY     85  71  63 S8        30.06S HX  90
SAWYER-GWINN   SUNNY     82  68  61 SW14      30.03F
$$
MIZ001>003-009>011-084-231800-
WESTERN UPPER MICHIGAN

CITY           SKY/WX    TMP DP  RH WIND       PRES   REMARKS
IRON MOUNTAIN  SUNNY     86  65  49 SW14      30.03S
HOUGHTON       PTSUNNY   84  68  58 W12G22    29.97R
COPPER HARBOR    N/A     83  70  64 VRB6      29.94R
IRONWOOD       SUNNY     81  70  69 W14       29.99S
$$

ABBREVIATIONS USED IN REMARKS
   TC - TEMPERATURE IN CELSIUS
  WCI - WIND CHILL INDEX
   HX - HEAT INDEX
  VSB - VISIBILITY





USA.gov is the U.S. government's official web portal to all federal, state and local government web resources and services.